Pride — ZDFD7 — position and weather

sailwx.info

Track history (hours):
 
Tides and Currents Weather Stations Pressure Air Temp Water Temp Dewpoint Dewpoint Depression Visibility Wind Speed Wind Dir Waves Ship Positions

Pride

Last reported at 2014-Jul-23 17:29 UTC. Time now 2014-Jul-23 18:11 UTC.
Position N 54°32' E 018°33'.

Length 89 m; draft 5 m.

Type: Ship. MMSI: 236166000.

Date/timePositionNaut miles runAvg speedWind from/ knotsBaromVisibWave heightAir tempDewpointWater temp
2014-Jul-23 17:29N 54°32' E 018°33'0 0.0
2014-Jul-23 16:31N 54°32' E 018°33'0 0.0
2014-Jul-23 15:33N 54°32' E 018°33'0 0.0
2014-Jul-23 14:32N 54°32' E 018°33'0 0.0
2014-Jul-23 13:31N 54°32' E 018°33'0 0.0
2014-Jul-23 12:33N 54°32' E 018°33'0 0.0
2014-Jul-23 11:32N 54°32' E 018°33'0 0.0
2014-Jul-23 10:30N 54°32' E 018°33'0 0.0
2014-Jul-23 09:32N 54°32' E 018°33'0 0.0
2014-Jul-23 08:33N 54°32' E 018°33'1 0.6
2014-Jul-23 07:33N 54°32' E 018°34'9 9.5
2014-Jul-23 06:33N 54°34' E 018°50'10 9.5
2014-Jul-23 05:33N 54°42' E 018°57'9 8.6
2014-Jul-23 04:33N 54°50' E 018°50'10 9.7
2014-Jul-23 03:33N 54°55' E 018°36'9 9.1
2014-Jul-23 02:34N 54°55' E 018°21'9 9.3
2014-Jul-23 01:33N 54°54' E 018°04'9 9.2
2014-Jul-23 00:33N 54°54' E 017°48'9 9.3
2014-Jul-22 23:33N 54°53' E 017°32'9 9.3
2014-Jul-22 22:33N 54°52' E 017°16'22 9.3
2014-Jul-22 20:11N 54°47' E 016°39'6 9.4
2014-Jul-22 19:30N 54°45' E 016°28'9 9.5
2014-Jul-22 18:34N 54°41' E 016°14'9 9.4
2014-Jul-22 17:34N 54°36' E 016°00'18 9.1
2014-Jul-22 15:33N 54°27' E 015°33'9 8.9
2014-Jul-22 14:33N 54°23' E 015°20'9 9.3
2014-Jul-22 13:34N 54°18' E 015°06'9 9.5
2014-Jul-22 12:34N 54°13' E 014°53'10 9.6
2014-Jul-22 11:34N 54°08' E 014°38'10 9.7
2014-Jul-22 10:34N 54°03' E 014°24'8 8.1
2014-Jul-22 09:34N 53°57' E 014°16'6 6.3
2014-Jul-22 08:34N 53°50' E 014°18'9 9.4
2014-Jul-22 07:34N 53°43' E 014°28'13 9.4
2014-Jul-22 06:08N 53°31' E 014°38'5 8.1
2014-Jul-22 05:33N 53°26' E 014°36'2 0.3
2014-Jul-22 00:22N 53°25' E 014°36'0 0.0
2014-Jul-21 13:10N 53°25' E 014°36'0 0.0
2014-Jul-21 08:31N 53°25' E 014°36'0 0.0
2014-Jul-21 07:22N 53°25' E 014°36'0 0.0
2014-Jul-21 06:33N 53°25' E 014°36'0 0.0
2014-Jul-21 05:32N 53°25' E 014°36'0 0.0
2014-Jul-21 04:31N 53°25' E 014°36'0 0.0
2014-Jul-21 03:33N 53°25' E 014°36'0 0.0
2014-Jul-21 02:30N 53°25' E 014°36'0 0.0
2014-Jul-21 01:32N 53°25' E 014°36'0 0.0
2014-Jul-21 00:29N 53°25' E 014°36'0 0.0
2014-Jul-20 23:31N 53°25' E 014°36'0 0.0
2014-Jul-20 22:17N 53°25' E 014°36'0 0.0
2014-Jul-20 21:33N 53°25' E 014°36'0 0.0
2014-Jul-20 20:32N 53°25' E 014°36'0 0.0
2014-Jul-20 19:32N 53°25' E 014°36'0 0.0
2014-Jul-20 18:33N 53°25' E 014°36'0 0.0
2014-Jul-20 17:30N 53°25' E 014°36'0 0.0
2014-Jul-20 16:24N 53°25' E 014°36'0 0.0
2014-Jul-20 15:32N 53°25' E 014°36'0 0.0
2014-Jul-20 14:30N 53°25' E 014°36'0 0.0
2014-Jul-20 13:33N 53°25' E 014°36'0 0.0
2014-Jul-20 12:20N 53°25' E 014°36'3 4.2
2014-Jul-20 11:34N 53°28' E 014°36'9 8.3
2014-Jul-20 10:31N 53°37' E 014°35'9 9.2
2014-Jul-20 09:33N 53°44' E 014°27'9 9.1
2014-Jul-20 08:33N 53°51' E 014°17'7 7.3
2014-Jul-20 07:33N 53°58' E 014°16'9 9.1
2014-Jul-20 06:33N 54°07' E 014°13'9 8.6
2014-Jul-20 05:33N 54°15' E 014°08'9 8.7
2014-Jul-20 04:33N 54°21' E 013°57'9 8.9
2014-Jul-20 03:33N 54°29' E 013°49'9 9.1
2014-Jul-20 02:33N 54°36' E 013°42'9 9.0
2014-Jul-20 01:33N 54°44' E 013°34'9 9.2
2014-Jul-20 00:33N 54°52' E 013°26'10 9.5
2014-Jul-19 23:33N 55°00' E 013°17'10 9.7
2014-Jul-19 22:33N 55°07' E 013°05'9 9.5
2014-Jul-19 21:33N 55°14' E 012°53'9 9.4
2014-Jul-19 20:33N 55°18' E 012°38'9 8.9
2014-Jul-19 19:33N 55°27' E 012°40'9 8.8
2014-Jul-19 18:33N 55°35' E 012°42'8 8.4
2014-Jul-19 17:33N 55°44' E 012°41'9 8.9
2014-Jul-19 16:33N 55°52' E 012°38'9 8.8
2014-Jul-19 15:33N 56°01' E 012°38'7 6.8
2014-Jul-19 14:33N 56°07' E 012°31'9 8.7
2014-Jul-19 13:33N 56°12' E 012°18'10 9.5
2014-Jul-19 12:33N 56°17' E 012°05'10 9.7
2014-Jul-19 11:31N 56°27' E 011°60'9 9.3
2014-Jul-19 10:33N 56°36' E 011°55'9 9.3
2014-Jul-19 09:32N 56°45' E 011°52'9 9.3
2014-Jul-19 08:33N 56°54' E 011°46'10 9.6
2014-Jul-19 07:32N 57°03' E 011°40'9 9.1
2014-Jul-19 06:33N 57°11' E 011°35'9 8.9
2014-Jul-19 05:33N 57°20' E 011°29'9 8.9
2014-Jul-19 04:33N 57°28' E 011°23'9 9.3
2014-Jul-19 03:33N 57°34' E 011°10'9 8.8
2014-Jul-19 02:33N 57°40' E 010°58'9 9.3
2014-Jul-19 01:33N 57°47' E 010°46'10 9.9
2014-Jul-19 00:33N 57°47' E 010°27'9 9.4
2014-Jul-18 23:33N 57°48' E 010°10'125 9.6
2014-Jul-18 10:30N 58°08' E 006°18'910.0
2014-Jul-18 09:33N 58°15' E 006°05'10 9.9
2014-Jul-18 08:33N 58°21' E 005°51'9 9.4
2014-Jul-18 07:33N 58°28' E 005°38'20 9.7
2014-Jul-18 05:33N 58°45' E 005°19'9 9.3
2014-Jul-18 04:33N 58°54' E 005°19'10 9.7
2014-Jul-18 03:33N 59°04' E 005°19'9 8.6
2014-Jul-18 02:33N 59°10' E 005°30'10 9.6
2014-Jul-18 01:33N 59°16' E 005°44'10 9.7
2014-Jul-18 00:33N 59°22' E 006°00'9 9.3
2014-Jul-17 23:33N 59°28' E 006°13'5 0.2
2014-Jul-16 22:15N 59°24' E 006°07'6 9.4
2014-Jul-16 21:33N 59°21' E 005°57'1010.5
2014-Jul-16 20:33N 59°14' E 005°41'1110.6
2014-Jul-16 19:33N 59°06' E 005°27'1010.2
2014-Jul-16 18:33N 59°01' E 005°09'  
Track history (hours):
 
Tides and Currents Weather Stations Pressure Air Temp Water Temp Dewpoint Dewpoint Depression Visibility Wind Speed Wind Dir Waves Ship Positions

Pride

Last reported at 2014-Jul-23 17:29 UTC. Time now 2014-Jul-23 18:11 UTC.
Position N 54°32' E 018°33'.

Length 89 m; draft 5 m.

Type: Ship. MMSI: 236166000.

Date/timePositionNaut miles runAvg speedWind from/ knotsBaromVisibWave heightAir tempDewpointWater temp
2014-Jul-23 17:29N 54°32' E 018°33'0 0.0
2014-Jul-23 16:31N 54°32' E 018°33'0 0.0
2014-Jul-23 15:33N 54°32' E 018°33'0 0.0
2014-Jul-23 14:32N 54°32' E 018°33'0 0.0
2014-Jul-23 13:31N 54°32' E 018°33'0 0.0
2014-Jul-23 12:33N 54°32' E 018°33'0 0.0
2014-Jul-23 11:32N 54°32' E 018°33'0 0.0
2014-Jul-23 10:30N 54°32' E 018°33'0 0.0
2014-Jul-23 09:32N 54°32' E 018°33'0 0.0
2014-Jul-23 08:33N 54°32' E 018°33'1 0.6
2014-Jul-23 07:33N 54°32' E 018°34'9 9.5
2014-Jul-23 06:33N 54°34' E 018°50'10 9.5
2014-Jul-23 05:33N 54°42' E 018°57'9 8.6
2014-Jul-23 04:33N 54°50' E 018°50'10 9.7
2014-Jul-23 03:33N 54°55' E 018°36'9 9.1
2014-Jul-23 02:34N 54°55' E 018°21'9 9.3
2014-Jul-23 01:33N 54°54' E 018°04'9 9.2
2014-Jul-23 00:33N 54°54' E 017°48'9 9.3
2014-Jul-22 23:33N 54°53' E 017°32'9 9.3
2014-Jul-22 22:33N 54°52' E 017°16'22 9.3
2014-Jul-22 20:11N 54°47' E 016°39'6 9.4
2014-Jul-22 19:30N 54°45' E 016°28'9 9.5
2014-Jul-22 18:34N 54°41' E 016°14'9 9.4
2014-Jul-22 17:34N 54°36' E 016°00'18 9.1
2014-Jul-22 15:33N 54°27' E 015°33'9 8.9
2014-Jul-22 14:33N 54°23' E 015°20'9 9.3
2014-Jul-22 13:34N 54°18' E 015°06'9 9.5
2014-Jul-22 12:34N 54°13' E 014°53'10 9.6
2014-Jul-22 11:34N 54°08' E 014°38'10 9.7
2014-Jul-22 10:34N 54°03' E 014°24'8 8.1
2014-Jul-22 09:34N 53°57' E 014°16'6 6.3
2014-Jul-22 08:34N 53°50' E 014°18'9 9.4
2014-Jul-22 07:34N 53°43' E 014°28'13 9.4
2014-Jul-22 06:08N 53°31' E 014°38'5 8.1
2014-Jul-22 05:33N 53°26' E 014°36'2 0.3
2014-Jul-22 00:22N 53°25' E 014°36'0 0.0
2014-Jul-21 13:10N 53°25' E 014°36'0 0.0
2014-Jul-21 08:31N 53°25' E 014°36'0 0.0
2014-Jul-21 07:22N 53°25' E 014°36'0 0.0
2014-Jul-21 06:33N 53°25' E 014°36'0 0.0
2014-Jul-21 05:32N 53°25' E 014°36'0 0.0
2014-Jul-21 04:31N 53°25' E 014°36'0 0.0
2014-Jul-21 03:33N 53°25' E 014°36'0 0.0
2014-Jul-21 02:30N 53°25' E 014°36'0 0.0
2014-Jul-21 01:32N 53°25' E 014°36'0 0.0
2014-Jul-21 00:29N 53°25' E 014°36'0 0.0
2014-Jul-20 23:31N 53°25' E 014°36'0 0.0
2014-Jul-20 22:17N 53°25' E 014°36'0 0.0
2014-Jul-20 21:33N 53°25' E 014°36'0 0.0
2014-Jul-20 20:32N 53°25' E 014°36'0 0.0
2014-Jul-20 19:32N 53°25' E 014°36'0 0.0
2014-Jul-20 18:33N 53°25' E 014°36'0 0.0
2014-Jul-20 17:30N 53°25' E 014°36'0 0.0
2014-Jul-20 16:24N 53°25' E 014°36'0 0.0
2014-Jul-20 15:32N 53°25' E 014°36'0 0.0
2014-Jul-20 14:30N 53°25' E 014°36'0 0.0
2014-Jul-20 13:33N 53°25' E 014°36'0 0.0
2014-Jul-20 12:20N 53°25' E 014°36'3 4.2
2014-Jul-20 11:34N 53°28' E 014°36'9 8.3
2014-Jul-20 10:31N 53°37' E 014°35'9 9.2
2014-Jul-20 09:33N 53°44' E 014°27'9 9.1
2014-Jul-20 08:33N 53°51' E 014°17'7 7.3
2014-Jul-20 07:33N 53°58' E 014°16'9 9.1
2014-Jul-20 06:33N 54°07' E 014°13'9 8.6
2014-Jul-20 05:33N 54°15' E 014°08'9 8.7
2014-Jul-20 04:33N 54°21' E 013°57'9 8.9
2014-Jul-20 03:33N 54°29' E 013°49'9 9.1
2014-Jul-20 02:33N 54°36' E 013°42'9 9.0
2014-Jul-20 01:33N 54°44' E 013°34'9 9.2
2014-Jul-20 00:33N 54°52' E 013°26'10 9.5
2014-Jul-19 23:33N 55°00' E 013°17'10 9.7
2014-Jul-19 22:33N 55°07' E 013°05'9 9.5
2014-Jul-19 21:33N 55°14' E 012°53'9 9.4
2014-Jul-19 20:33N 55°18' E 012°38'9 8.9
2014-Jul-19 19:33N 55°27' E 012°40'9 8.8
2014-Jul-19 18:33N 55°35' E 012°42'8 8.4
2014-Jul-19 17:33N 55°44' E 012°41'9 8.9
2014-Jul-19 16:33N 55°52' E 012°38'9 8.8
2014-Jul-19 15:33N 56°01' E 012°38'7 6.8
2014-Jul-19 14:33N 56°07' E 012°31'9 8.7
2014-Jul-19 13:33N 56°12' E 012°18'10 9.5
2014-Jul-19 12:33N 56°17' E 012°05'10 9.7
2014-Jul-19 11:31N 56°27' E 011°60'9 9.3
2014-Jul-19 10:33N 56°36' E 011°55'9 9.3
2014-Jul-19 09:32N 56°45' E 011°52'9 9.3
2014-Jul-19 08:33N 56°54' E 011°46'10 9.6
2014-Jul-19 07:32N 57°03' E 011°40'9 9.1
2014-Jul-19 06:33N 57°11' E 011°35'9 8.9
2014-Jul-19 05:33N 57°20' E 011°29'9 8.9
2014-Jul-19 04:33N 57°28' E 011°23'9 9.3
2014-Jul-19 03:33N 57°34' E 011°10'9 8.8
2014-Jul-19 02:33N 57°40' E 010°58'9 9.3
2014-Jul-19 01:33N 57°47' E 010°46'10 9.9
2014-Jul-19 00:33N 57°47' E 010°27'9 9.4
2014-Jul-18 23:33N 57°48' E 010°10'125 9.6
2014-Jul-18 10:30N 58°08' E 006°18'910.0
2014-Jul-18 09:33N 58°15' E 006°05'10 9.9
2014-Jul-18 08:33N 58°21' E 005°51'9 9.4
2014-Jul-18 07:33N 58°28' E 005°38'20 9.7
2014-Jul-18 05:33N 58°45' E 005°19'9 9.3
2014-Jul-18 04:33N 58°54' E 005°19'10 9.7
2014-Jul-18 03:33N 59°04' E 005°19'9 8.6
2014-Jul-18 02:33N 59°10' E 005°30'10 9.6
2014-Jul-18 01:33N 59°16' E 005°44'10 9.7
2014-Jul-18 00:33N 59°22' E 006°00'9 9.3
2014-Jul-17 23:33N 59°28' E 006°13'5 0.2
2014-Jul-16 22:15N 59°24' E 006°07'6 9.4
2014-Jul-16 21:33N 59°21' E 005°57'1010.5
2014-Jul-16 20:33N 59°14' E 005°41'1110.6
2014-Jul-16 19:33N 59°06' E 005°27'1010.2
2014-Jul-16 18:33N 59°01' E 005°09'  

Dump ship's entire track history